Location: Unspecified
(0.0000°N, 0.0000°E)
Time: 17:57:34
(UTC+00:00)

STARLINK 1053 - Pass Details

Date: 22 January 2020
Orbit: 548 x 551 km, 53.0° (Epoch: 17 January)

Event Time Altitude Azimuth Distance (km) Brightness Sun altitude
Rises 05:05:02 0° 221° (SW) 2,712 7.0 -15.6°
Reaches altitude 10° 05:07:17 10° 225° (SW) 1,816 6.0 -15.1°
Maximum altitude 05:11:20 57° 304° (WNW) 645 3.6 -14.1°
Drops below altitude 10° 05:15:23 10° 23° (NNE) 1,808 6.3 -13.2°
Sets 05:17:38 0° 27° (NNE) 2,697 7.2 -12.6°
